[[{"header":{"parameterUnit":"m.s-1","parameterCategory":1,"la1":30.2991,"la2":30.254,"lo1":-89.0895,"lo2":-89.0444,"dy":0.0017,"dx":0.0017,"nx":28,"ny":28,"refTime":"2025-03-12T09:00:00:Z","depth":0,"parameterNumber":2,"parameterNumberName":"U-component_of_WINDS"},"data":[0,0,0,0,0,0,0,0,0,0,0,0,0,0,0,0,0,0,0,0,0,0,0,0,0,0,0,0,0,0,0,0,0,0,0,0,0,0,0,0,0,0,0,0,0,0,0,0,0,0,0,0,0,0,0,0,0,0,1.0405,1.0406,0,1.0457,1.0457,1.0458,1.0456,1.0455,1.0454,1.0454,1.0504,1.0506,1.0508,0,0,0,0,0,0,0,0,0,0,0,0,0,1.0304,1.0306,1.0405,1.0406,1.0407,1.0456,1.0457,1.0458,1.0456,1.0455,1.0454,1.0453,1.0504,1.0506,1.0508,0,0,0,0,0,0,0,0,0,0,0,0,0,1.0351,1.0306,1.0405,1.0412,1.0413,1.0456,1.0457,1.0458,1.0456,1.0455,1.0454,1.0453,1.0503,1.0506,1.0509,1.0549,0,0,1.0518,1.0519,0,0,0,0,0,0,0,0,1.0348,1.0354,1.041,1.0411,1.0413,1.0449,1.044,1.0488,1.0456,1.0439,1.0453,1.0452,1.0487,1.0491,1.0503,1.0551,1.0553,1.0518,1.052,1.0521,1.0522,0,0,0,0,0,0,0,1.0345,1.0352,1.0425,1.0411,1.0412,1.0411,1.0417,1.0449,1.0468,1.0441,1.0441,1.0447,1.0487,1.05,1.0504,1.0554,1.0518,1.0521,1.0523,1.0524,1.0637,1.0638,0,0,0,0,0,0,1.034,1.0349,1.0424,1.0427,1.0377,1.0414,1.042,1.0438,1.0468,1.0472,1.0448,1.0447,1.0495,1.05,1.0506,1.0554,1.0521,1.0524,1.0526,1.0636,1.0637,1.0639,0,0,0,0,0,0,1.0338,1.0347,1.0422,1.0388,1.0398,1.0417,1.0437,1.044,1.0452,1.0473,1.0477,1.0458,1.0495,1.0501,1.0538,1.0556,1.0526,1.0528,1.0634,1.0636,1.0638,1.0651,0,0,0,0,0,0,1.0335,1.0346,1.0362,1.0389,1.04,1.0454,1.0438,1.0441,1.0458,1.0457,1.0483,1.0487,1.0494,1.0534,1.0541,1.0559,1.0531,1.0633,1.0635,1.0637,1.0649,1.0653,1.0656,0,0,0,0,0,1.0332,1.0364,1.0363,1.0372,1.042,1.0455,1.0461,1.047,1.0459,1.0475,1.0488,1.0486,1.0553,1.0537,1.0546,1.0565,1.0632,1.0635,1.0637,1.0647,1.0652,1.0656,0,0,0,0,0,0,1.0338,1.0367,1.0367,1.0409,1.0429,1.0455,1.0475,1.0475,1.0499,1.0497,1.0506,1.0512,1.0548,1.056,1.0543,1.0605,1.0591,1.0595,1.0596,1.06,1.0604,1.06,1.0533,0,0,0,0,0,1.0345,1.0371,1.0395,1.043,1.044,1.0456,1.0471,1.0476,1.0498,1.0506,1.0522,1.0543,1.0569,1.0585,1.061,1.0651,1.0656,1.0668,1.0672,1.0675,1.0679,1.07,1.0706,1.0647,1.0647,1.0647,0,0,1.0358,1.0377,1.0393,1.0431,1.0448,1.0475,1.0463,1.0492,1.0512,1.0511,1.0546,1.0559,1.0582,1.0621,1.0639,1.0632,1.0696,1.0678,1.068,1.0683,1.0703,1.0709,1.0714,1.0649,1.0649,1.0649,0,0,1.0396,1.0414,1.0444,1.0461,1.0486,1.0496,1.0504,1.0529,1.0537,1.0573,1.0573,1.0596,1.064,1.0657,1.0671,1.0714,1.0712,1.0722,1.0741,1.0762,1.0767,1.0771,1.0785,1.0791,1.0726,1.0726,1.0726,0,1.0409,1.045,1.0459,1.0488,1.0505,1.0505,1.0536,1.0551,1.0583,1.0594,1.0587,1.0642,1.0658,1.07,1.071,1.0722,1.073,1.0719,1.0765,1.077,1.0773,1.0788,1.0793,1.0727,1.0727,1.0727,1.0726,0,1.0465,1.0493,1.0514,1.0545,1.0564,1.0594,1.0606,1.0624,1.0627,1.0638,1.0674,1.0693,1.0721,1.0732,1.0735,1.0774,1.0769,1.0763,1.0749,1.078,1.0793,1.0799,1.0728,1.0728,1.0727,1.0727,0,0,1.0508,1.0544,1.0552,1.0565,1.0593,1.0615,1.0644,1.0672,1.0687,1.0709,1.0733,1.077,1.0765,1.0781,1.0786,1.0804,1.0836,1.0796,1.0797,1.0802,1.088,1.0884,1.089,1.0836,1.0837,1.0838,1.0878,0,1.0548,1.0601,1.0609,1.0655,1.068,1.0681,1.0707,1.0726,1.0737,1.0759,1.0771,1.0797,1.0788,1.0798,1.0816,1.0829,1.0852,1.0826,1.0857,1.0858,1.0851,1.0897,1.0901,1.0938,1.0883,1.0884,1.0885,0,1.0602,1.0626,1.0674,1.0698,1.0709,1.0732,1.0758,1.078,1.0801,1.0808,1.0826,1.0828,1.0858,1.0842,1.0882,1.0864,1.0878,1.0886,1.0887,1.089,1.0873,1.09,1.095,1.0956,1.0893,1.0892,1.0892,0,1.0628,1.0672,1.0706,1.0718,1.0747,1.0763,1.0776,1.0796,1.0812,1.0835,1.0845,1.0871,1.0885,1.0904,1.0913,1.0902,1.0953,1.0938,1.0958,1.0958,1.0968,1.0967,1.102,1.0978,1.0978,1.0978,1.0977,0,1.0671,1.0701,1.0718,1.0739,1.0771,1.0781,1.0813,1.0825,1.0843,1.0866,1.0868,1.089,1.0901,1.0923,1.0931,1.0962,1.0969,1.0974,1.0976,1.0974,1.0973,1.0982,1.0979,1.0979,1.0979,1.0978,1.0978,0,1.0706,1.0719,1.0756,1.078,1.0787,1.081,1.083,1.085,1.0861,1.089,1.0897,1.0913,1.094,1.0951,1.0984,1.0989,1.1025,1.1025,1.1018,1.1018,1.1037,1.1034,1.1097,1.1105,1.1058,1.1058,1.1059,0,1.0732,1.0755,1.0782,1.0797,1.0811,1.0836,1.0852,1.0863,1.0879,1.0906,1.0922,1.0949,1.0971,1.1014,1.1028,1.1053,1.1053,1.1073,1.1056,1.1054,1.1052,1.1051,1.1052,1.1076,1.1076,1.1077,1.1077,0,1.0778,1.0783,1.0807,1.0833,1.0853,1.0874,1.0894,1.0907,1.092,1.0939,1.0966,1.0983,1.1017,1.1043,1.1069,1.1081,1.1081,1.1082,1.1088,1.1086,1.108,1.1083,1.1025,1.1081,1.108,1.108,1.108,1.108,1.0808,1.0828,1.085,1.0877,1.0893,1.0912,1.0932,1.0945,1.0968,1.0997,1.1001,1.103,1.1051,1.1085,1.1099,1.1121,1.1116,1.1125,1.1127,1.1128,1.1129,1.1077,1.1126,1.1126,1.1126,1.1126,1.1126,0,1.0853,1.0867,1.0892,1.092,1.0941,1.094,1.0962,1.0979,1.1005,1.1025,1.1046,1.1078,1.1103,1.112,1.1145,1.116,1.116,1.1166,1.1165,1.1167,1.1133,1.1125,1.1165,1.1165,1.1165,1.1165,1.1165,1.1165,1.0879,1.0912,1.092,1.0961,1.0975,1.1004,1.1017,1.1034,1.105,1.1085,1.1106,1.1117,1.1135,1.1161,1.1184,1.1188,1.1197,1.1203,1.1207,1.1174,1.117,1.1166,1.1159,1.1205,1.1206,1.124,1.124,1.124]},{"header":{"parameterUnit":"m.s-1","parameterCategory":1,"la1":30.2991,"la2":30.254,"lo1":-89.0895,"lo2":-89.0444,"dy":0.0017,"dx":0.0017,"nx":28,"ny":28,"refTime":"2025-03-12T09:00:00:Z","depth":0,"parameterNumber":3,"parameterNumberName":"V-component_of_WINDS"},"data":[0,0,0,0,0,0,0,0,0,0,0,0,0,0,0,0,0,0,0,0,0,0,0,0,0,0,0,0,0,0,0,0,0,0,0,0,0,0,0,0,0,0,0,0,0,0,0,0,0,0,0,0,0,0,0,0,0,0,3.6322,3.6323,0,3.6409,3.641,3.6411,3.6429,3.6429,3.6428,3.6427,3.651,3.6512,3.6515,0,0,0,0,0,0,0,0,0,0,0,0,0,3.6166,3.6168,3.6322,3.6323,3.6324,3.6409,3.641,3.6411,3.6429,3.6429,3.6428,3.6427,3.6509,3.6512,3.6515,0,0,0,0,0,0,0,0,0,0,0,0,0,3.6241,3.6169,3.6322,3.6344,3.6347,3.6409,3.641,3.6411,3.6429,3.6429,3.6428,3.6427,3.6508,3.6512,3.6516,3.656,0,0,3.6528,3.653,0,0,0,0,0,0,0,0,3.6237,3.6247,3.6339,3.6342,3.6346,3.6407,3.6385,3.6461,3.643,3.6398,3.6427,3.6426,3.6476,3.6483,3.6501,3.6564,3.6568,3.6529,3.6531,3.6533,3.6534,0,0,0,0,0,0,0,3.6231,3.6243,3.6356,3.6341,3.6344,3.6347,3.6357,3.64,3.6441,3.64,3.6402,3.6412,3.6477,3.6497,3.6503,3.6569,3.6529,3.6532,3.6535,3.6537,3.6673,3.6674,0,0,0,0,0,0,3.6223,3.6239,3.6353,3.6359,3.6288,3.6351,3.6361,3.6388,3.644,3.6448,3.6413,3.6413,3.649,3.6498,3.6506,3.6561,3.6533,3.6537,3.6539,3.6671,3.6673,3.6674,0,0,0,0,0,0,3.622,3.6233,3.635,3.6299,3.6314,3.6354,3.6384,3.6391,3.641,3.645,3.6457,3.6426,3.649,3.65,3.6547,3.6564,3.6539,3.6543,3.667,3.6672,3.6673,3.6672,0,0,0,0,0,0,3.6215,3.6232,3.6251,3.63,3.6317,3.6392,3.6386,3.6393,3.6418,3.6419,3.6464,3.647,3.649,3.6541,3.6551,3.657,3.6546,3.6669,3.6671,3.6673,3.6671,3.6674,3.6676,0,0,0,0,0,3.621,3.6246,3.6252,3.6265,3.6342,3.6393,3.6402,3.6426,3.6419,3.6438,3.6463,3.6469,3.6561,3.6545,3.6557,3.6577,3.6668,3.667,3.6673,3.667,3.6673,3.6676,0,0,0,0,0,0,3.6195,3.6252,3.626,3.6313,3.6348,3.6396,3.6419,3.6429,3.6465,3.6463,3.6489,3.6499,3.6544,3.6565,3.6547,3.6623,3.6614,3.6619,3.6607,3.6611,3.6614,3.6607,3.6549,0,0,0,0,0,3.6199,3.6237,3.6284,3.6327,3.6344,3.6379,3.6402,3.6417,3.6454,3.6468,3.6497,3.653,3.6567,3.659,3.6626,3.6674,3.6684,3.6694,3.6696,3.6698,3.6702,3.6729,3.6734,3.6682,3.6682,3.6682,0,0,3.6205,3.6241,3.6264,3.6325,3.6354,3.6391,3.6391,3.6431,3.6458,3.6473,3.652,3.6543,3.6581,3.6629,3.6652,3.6648,3.6719,3.6702,3.6703,3.6705,3.6732,3.6737,3.6741,3.6684,3.6684,3.6683,0,0,3.6236,3.6268,3.6307,3.6337,3.6382,3.6405,3.6414,3.6461,3.6477,3.6525,3.6537,3.6569,3.6631,3.6659,3.668,3.6723,3.6729,3.6734,3.6747,3.6772,3.6777,3.678,3.6795,3.68,3.6737,3.6737,3.6737,0,3.6238,3.6298,3.6325,3.6365,3.6391,3.6409,3.6447,3.6474,3.6527,3.6543,3.6539,3.6619,3.6646,3.67,3.6711,3.6728,3.6739,3.6728,3.6774,3.6778,3.6782,3.6796,3.6802,3.6738,3.6738,3.6738,3.6737,0,3.6297,3.6338,3.6364,3.6418,3.6447,3.6485,3.6517,3.6542,3.6555,3.6578,3.6626,3.666,3.6703,3.6717,3.6729,3.6773,3.6769,3.6769,3.6761,3.6787,3.68,3.6806,3.6738,3.6738,3.6738,3.6738,0,0,3.6321,3.6391,3.6399,3.6424,3.6475,3.6506,3.6545,3.659,3.6611,3.6647,3.6679,3.6732,3.6733,3.6758,3.6773,3.6796,3.6827,3.6793,3.6794,3.6798,3.6877,3.6876,3.6882,3.6832,3.6833,3.6834,3.6874,0,3.6358,3.6431,3.6457,3.6516,3.6554,3.6571,3.6605,3.6639,3.6662,3.6695,3.6719,3.6756,3.6754,3.677,3.6793,3.6818,3.6843,3.6816,3.686,3.6862,3.685,3.689,3.6889,3.6925,3.6879,3.688,3.6881,0,3.6411,3.645,3.6514,3.6561,3.6578,3.6608,3.6651,3.6683,3.6722,3.6736,3.6765,3.6779,3.6819,3.6808,3.6863,3.6843,3.6863,3.6878,3.688,3.6885,3.6872,3.6894,3.6937,3.6942,3.6889,3.6889,3.6888,0,3.6421,3.649,3.6537,3.6557,3.6614,3.6634,3.6658,3.6696,3.6721,3.6758,3.6774,3.6814,3.6836,3.6866,3.6889,3.688,3.6941,3.6933,3.6953,3.6953,3.6965,3.6963,3.701,3.6978,3.6978,3.6978,3.6978,0,3.6459,3.6497,3.6542,3.6571,3.6614,3.6643,3.6683,3.6708,3.6742,3.6774,3.6791,3.6821,3.6851,3.6884,3.6903,3.6945,3.6954,3.6966,3.697,3.6964,3.6963,3.6977,3.6975,3.698,3.6979,3.6979,3.6979,0,3.6477,3.6509,3.6561,3.6611,3.6625,3.6654,3.6695,3.6723,3.6747,3.6788,3.6799,3.6835,3.6875,3.6903,3.6953,3.6965,3.7011,3.7015,3.6998,3.7,3.7019,3.7017,3.7076,3.7085,3.7047,3.7048,3.7048,0,3.6499,3.6529,3.6582,3.6607,3.6632,3.667,3.6697,3.6726,3.6752,3.6799,3.6821,3.6862,3.6897,3.696,3.699,3.7028,3.7033,3.7051,3.7039,3.7032,3.7033,3.7031,3.7033,3.7053,3.7053,3.7053,3.7054,0,3.6534,3.6548,3.6587,3.6632,3.6664,3.6699,3.6735,3.6753,3.6789,3.6817,3.686,3.6887,3.694,3.6981,3.7023,3.7045,3.7055,3.7058,3.7064,3.7058,3.7047,3.7053,3.7003,3.7056,3.7055,3.7055,3.7055,3.7055,3.6554,3.6581,3.6624,3.6667,3.6697,3.6731,3.6759,3.6788,3.6825,3.6872,3.6886,3.693,3.6967,3.7025,3.7048,3.7082,3.708,3.709,3.7092,3.7094,3.7094,3.7043,3.7089,3.7089,3.7089,3.7089,3.7089,0,3.6589,3.6618,3.6657,3.6708,3.6741,3.675,3.6791,3.6817,3.6856,3.6892,3.6927,3.6975,3.7015,3.7049,3.7089,3.711,3.7115,3.7119,3.7118,3.7123,3.7093,3.7083,3.7114,3.7114,3.7114,3.7114,3.7114,3.7114,3.6611,3.6659,3.6679,3.6741,3.6769,3.6814,3.6836,3.6867,3.6895,3.695,3.6984,3.7007,3.7041,3.7085,3.7121,3.713,3.7143,3.7147,3.7156,3.7128,3.7125,3.7122,3.7113,3.715,3.715,3.7183,3.7183,3.7183]}]]